contact:dominique.lefevre@mio.osupytheas.fr, maurice.libes@osupytheas.fr, didier.mallarino@osupytheas.fr
Project:EMSO http://www.emso-fr.org/EMSO-France
Depth: 2436.0 m
Title:EMSO Ligure Ouest : Data MII capteur AQUADOPP
Date,Latitude,Longitude,X_East,Y_North,Z_Up,Amplitude_X,Amplitude_Y,Amplitude_Z,Batterie,SoundSpeed,Heading,Pitch,Roll,Pressure,TIS,Speed,Direction
, degrees North, degrees East, m.s-1, m.s-1,m.s-1, 1, 1, 1, Volt, m.s-1, degree, degree, degree, dbar, degree_C, m.s-1, degree
2019-09-14T00:09:04,42.805,6.029,-0.012,-0.022,-0.005,100.0,103.0,97.0,13.4,1505.2,325.9,-0.8,1.8,2470.191,13.29,0.025,208.6
2019-09-14T00:12:05,42.805,6.029,0.006,-0.017,0.007,100.0,102.0,98.0,13.4,1505.2,325.0,-0.7,1.9,2470.156,13.3,0.018,160.6
2019-09-14T00:15:06,42.805,6.029,0.017,-0.015,0.036,101.0,102.0,98.0,13.4,1505.3,326.4,-0.7,1.9,2470.138,13.31,0.022,131.4
2019-09-14T00:18:07,42.805,6.029,0.005,-0.045,-0.029,100.0,103.0,99.0,13.4,1505.3,323.5,-0.7,1.8,2470.158,13.32,0.045,173.7
2019-09-14T00:21:08,42.805,6.029,-0.024,-0.022,-0.056,100.0,102.0,99.0,13.4,1505.3,325.1,-0.7,1.8,2470.124,13.32,0.032,227.5
2019-09-14T00:24:09,42.805,6.029,0.004,-0.038,-0.017,101.0,103.0,97.0,13.3,1505.3,324.0,-0.7,1.8,2470.137,13.32,0.038,174.0
2019-09-14T00:27:10,42.805,6.029,0.006,-0.05,0.005,101.0,103.0,98.0,13.3,1505.3,327.1,-0.7,1.8,2470.106,13.32,0.05,173.2
2019-09-14T00:30:11,42.805,6.029,-0.03,-0.031,-0.013,101.0,102.0,99.0,13.4,1505.3,324.5,-0.7,1.8,2470.134,13.32,0.043,224.1
2019-09-14T00:33:12,42.805,6.029,-0.017,-0.045,-0.026,100.0,102.0,99.0,13.4,1505.3,325.8,-0.7,1.8,2470.107,13.32,0.048,200.7
2019-09-14T00:36:13,42.805,6.029,-0.017,-0.031,-0.051,102.0,101.0,98.0,13.3,1505.3,323.9,-0.7,1.8,2470.144,13.32,0.035,208.7
2019-09-14T00:39:14,42.805,6.029,-0.006,-0.026,-0.018,100.0,103.0,98.0,13.3,1505.3,326.0,-0.7,1.8,2470.116,13.32,0.026,193.0
2019-09-14T00:42:15,42.805,6.029,-0.032,-0.028,-0.045,101.0,102.0,99.0,13.4,1505.3,324.9,-0.7,1.8,2470.111,13.32,0.042,228.8
2019-09-14T00:45:16,42.805,6.029,0.015,-0.051,-0.026,102.0,102.0,99.0,13.4,1505.3,325.3,-0.7,1.8,2470.133,13.32,0.053,163.6
2019-09-14T00:48:17,42.805,6.029,-0.005,-0.023,-0.022,100.0,101.0,98.0,13.4,1505.3,324.6,-0.7,1.8,2470.101,13.32,0.023,192.3
2019-09-14T00:51:18,42.805,6.029,-0.006,-0.028,-0.007,101.0,102.0,98.0,13.4,1505.3,325.9,-0.7,1.8,2470.079,13.32,0.028,192.1
2019-09-14T00:54:19,42.805,6.029,0.014,-0.021,-0.014,101.0,102.0,98.0,13.4,1505.3,326.9,-0.7,1.8,2470.117,13.32,0.025,146.3
2019-09-14T00:57:20,42.805,6.029,0.013,-0.042,-0.031,102.0,102.0,98.0,13.4,1505.3,325.7,-0.7,1.8,2470.089,13.32,0.043,162.8
2019-09-14T01:00:21,42.805,6.029,0.025,-0.037,0.011,100.0,102.0,99.0,13.3,1505.3,326.1,-0.7,1.8,2470.077,13.32,0.044,146.0
2019-09-14T01:03:22,42.805,6.029,0.011,-0.043,-0.024,101.0,103.0,98.0,13.4,1505.3,326.8,-0.7,1.8,2470.096,13.32,0.044,165.7
2019-09-14T01:06:23,42.805,6.029,0.018,-0.03,-0.005,101.0,101.0,98.0,13.4,1505.3,326.4,-0.7,1.9,2470.077,13.32,0.034,149.0
2019-09-14T01:09:24,42.805,6.029,0.016,-0.023,0.024,100.0,101.0,98.0,13.4,1505.3,326.5,-0.7,1.9,2470.103,13.32,0.028,145.2
2019-09-14T01:12:25,42.805,6.029,0.011,-0.027,-0.04,101.0,103.0,99.0,13.4,1505.3,326.1,-0.7,1.9,2470.081,13.32,0.029,157.8
2019-09-14T01:15:26,42.805,6.029,0.005,-0.03,0.002,101.0,102.0,100.0,13.4,1505.3,326.1,-0.7,1.9,2470.055,13.32,0.03,170.5
2019-09-14T01:18:27,42.805,6.029,0.008,-0.03,0.0,100.0,103.0,100.0,13.4,1505.3,326.6,-0.7,1.8,2470.069,13.32,0.031,165.1
2019-09-14T01:21:28,42.805,6.029,0.01,-0.024,-0.02,100.0,102.0,99.0,13.4,1505.3,324.9,-0.7,1.8,2470.04,13.32,0.026,157.4
2019-09-14T01:24:29,42.805,6.029,-0.017,-0.051,-0.02,100.0,103.0,99.0,13.3,1505.3,324.9,-0.7,1.9,2470.051,13.32,0.053,198.4
2019-09-14T01:27:30,42.805,6.029,0.022,-0.034,-0.011,101.0,103.0,98.0,13.3,1505.3,325.2,-0.7,1.8,2470.058,13.32,0.04,147.1
2019-09-14T01:30:31,42.805,6.029,0.025,-0.036,0.018,100.0,103.0,99.0,13.4,1505.3,326.0,-0.7,1.8,2470.104,13.32,0.043,145.2
2019-09-14T01:33:32,42.805,6.029,0.005,-0.033,0.0,101.0,103.0,99.0,13.4,1505.3,324.4,-0.7,1.9,2470.047,13.32,0.033,171.4
2019-09-14T01:36:33,42.805,6.029,0.033,-0.012,-0.005,103.0,100.0,98.0,13.4,1505.3,325.2,-0.7,1.8,2470.014,13.32,0.035,110.0
2019-09-14T01:39:34,42.805,6.029,0.004,-0.034,0.005,102.0,102.0,99.0,13.4,1505.3,326.6,-0.7,1.8,2470.005,13.32,0.034,173.3
2019-09-14T01:42:35,42.805,6.029,-0.024,-0.034,-0.029,101.0,102.0,98.0,13.4,1505.3,324.6,-0.7,1.8,2470.011,13.32,0.041,215.2
2019-09-14T01:45:36,42.805,6.029,-0.004,-0.035,-0.025,101.0,103.0,99.0,13.4,1505.3,326.7,-0.8,1.9,2470.032,13.32,0.035,186.5
2019-09-14T01:48:37,42.805,6.029,-0.001,-0.034,0.0,99.0,103.0,99.0,13.3,1505.3,325.5,-0.7,1.8,2470.085,13.32,0.034,181.7
2019-09-14T01:51:38,42.805,6.029,0.0,-0.029,-0.043,101.0,103.0,98.0,13.4,1505.3,326.4,-0.7,1.8,2470.066,13.32,0.028,180.0
2019-09-14T01:54:39,42.805,6.029,-0.013,-0.02,-0.041,101.0,102.0,98.0,13.4,1505.3,326.7,-0.7,1.9,2470.08,13.32,0.023,213.0
2019-09-14T01:57:40,42.805,6.029,0.01,-0.027,-0.033,100.0,102.0,99.0,13.4,1505.3,324.0,-0.7,1.9,2470.06,13.32,0.028,159.7
2019-09-14T02:00:41,42.805,6.029,0.029,-0.046,-0.031,102.0,102.0,99.0,13.3,1505.3,323.6,-0.7,1.8,2469.998,13.32,0.054,147.8
2019-09-14T02:03:42,42.805,6.029,-0.003,-0.03,-0.036,100.0,102.0,98.0,13.4,1505.3,326.3,-0.7,1.8,2470.032,13.32,0.03,185.7
2019-09-14T02:06:43,42.805,6.029,-0.008,-0.033,-0.033,101.0,103.0,98.0,13.4,1505.3,327.6,-0.7,1.8,2470.063,13.32,0.033,193.6
2019-09-14T02:09:44,42.805,6.029,-0.032,-0.033,-0.019,100.0,103.0,98.0,13.4,1505.3,327.9,-0.7,1.8,2470.054,13.32,0.045,224.1
2019-09-14T02:12:45,42.805,6.029,-0.006,-0.043,-0.027,101.0,103.0,99.0,13.3,1505.3,326.0,-0.7,1.8,2470.05,13.32,0.043,187.9
2019-09-14T02:15:46,42.805,6.029,-0.003,-0.034,-0.005,102.0,103.0,98.0,13.4,1505.3,324.6,-0.7,1.8,2470.056,13.32,0.034,185.0
2019-09-14T02:18:47,42.805,6.029,-0.002,-0.043,-0.055,101.0,104.0,98.0,13.3,1505.3,327.1,-0.7,1.8,2470.028,13.32,0.043,182.7
2019-09-14T02:21:48,42.805,6.029,-0.01,-0.035,-0.027,100.0,102.0,98.0,13.4,1505.3,327.1,-0.7,1.8,2470.013,13.32,0.036,195.9
2019-09-14T02:24:49,42.805,6.029,-0.033,-0.045,-0.044,101.0,103.0,98.0,13.3,1505.3,324.5,-0.7,1.9,2470.079,13.32,0.055,216.3
2019-09-14T02:27:50,42.805,6.029,0.001,-0.035,-0.027,102.0,101.0,99.0,13.3,1505.3,325.0,-0.7,1.8,2470.007,13.32,0.035,178.4
2019-09-14T02:30:51,42.805,6.029,-0.021,-0.056,-0.024,101.0,102.0,98.0,13.4,1505.3,325.8,-0.7,1.9,2470.063,13.32,0.059,200.6
2019-09-14T02:33:52,42.805,6.029,0.01,-0.04,-0.034,101.0,103.0,97.0,13.4,1505.3,324.2,-0.7,1.8,2470.062,13.32,0.041,166.0
2019-09-14T02:36:53,42.805,6.029,-0.003,-0.037,-0.005,101.0,101.0,98.0,13.3,1505.3,327.9,-0.8,1.8,2470.052,13.32,0.037,184.6
2019-09-14T02:39:54,42.805,6.029,-0.008,-0.048,-0.033,100.0,102.0,99.0,13.3,1505.3,325.6,-0.7,1.8,2470.069,13.32,0.048,189.5
2019-09-14T02:42:55,42.805,6.029,-0.004,-0.038,0.0,100.0,102.0,99.0,13.4,1505.3,327.2,-0.7,1.8,2470.062,13.32,0.038,186.0
2019-09-14T02:45:56,42.805,6.029,-0.009,-0.038,-0.058,102.0,102.0,97.0,13.4,1505.3,324.7,-0.7,1.8,2470.043,13.32,0.039,193.3
2019-09-14T02:48:57,42.805,6.029,0.046,-0.032,0.023,99.0,103.0,98.0,13.4,1505.3,326.0,-0.7,1.8,2470.112,13.32,0.056,124.8
2019-09-14T02:51:58,42.805,6.029,-0.018,-0.052,-0.028,100.0,104.0,98.0,13.3,1505.3,323.3,-0.7,1.9,2470.07,13.32,0.055,199.1
2019-09-14T02:54:59,42.805,6.029,0.0,-0.028,-0.001,99.0,102.0,99.0,13.4,1505.3,326.0,-0.7,1.8,2470.025,13.32,0.028,180.0
2019-09-14T02:58:00,42.805,6.029,0.001,-0.036,-0.009,102.0,102.0,98.0,13.4,1505.3,328.6,-0.7,1.8,2470.023,13.32,0.036,178.4
2019-09-14T03:01:01,42.805,6.029,-0.008,-0.037,-0.035,101.0,102.0,99.0,13.4,1505.3,325.7,-0.7,1.8,2470.059,13.32,0.037,192.2
2019-09-14T03:04:02,42.805,6.029,-0.004,-0.041,-0.051,102.0,102.0,98.0,13.4,1505.3,325.8,-0.7,1.8,2470.032,13.32,0.041,185.6
2019-09-14T03:07:03,42.805,6.029,-0.003,-0.052,-0.012,101.0,103.0,99.0,13.4,1505.3,325.2,-0.7,1.8,2470.102,13.32,0.052,183.3
2019-09-14T03:10:04,42.805,6.029,-0.011,-0.043,-0.039,100.0,102.0,99.0,13.4,1505.3,324.2,-0.8,1.8,2470.049,13.32,0.044,194.3
2019-09-14T03:13:05,42.805,6.029,0.004,-0.042,-0.024,102.0,103.0,97.0,13.3,1505.3,324.8,-0.7,1.9,2470.023,13.32,0.042,174.6
2019-09-14T03:16:06,42.805,6.029,-0.003,-0.034,-0.029,101.0,102.0,98.0,13.4,1505.3,325.3,-0.7,1.8,2470.044,13.32,0.034,185.0
2019-09-14T03:19:07,42.805,6.029,-0.032,-0.033,-0.022,101.0,102.0,98.0,13.4,1505.3,328.4,-0.7,1.9,2470.018,13.32,0.045,224.1
2019-09-14T03:22:08,42.805,6.029,-0.024,-0.029,-0.07,102.0,100.0,98.0,13.3,1505.3,327.8,-0.7,1.8,2470.033,13.32,0.037,219.6
2019-09-14T03:25:09,42.805,6.029,0.014,-0.014,0.018,102.0,102.0,100.0,13.4,1505.3,325.0,-0.7,1.8,2470.054,13.32,0.019,135.0
2019-09-14T03:28:10,42.805,6.029,0.015,-0.034,-0.007,101.0,102.0,98.0,13.4,1505.3,326.9,-0.7,1.8,2470.049,13.32,0.037,156.2
2019-09-14T03:31:11,42.805,6.029,0.013,-0.052,0.028,100.0,102.0,99.0,13.4,1505.3,328.0,-0.7,1.8,2470.051,13.32,0.053,166.0
2019-09-14T03:34:12,42.805,6.029,-0.003,-0.035,-0.027,102.0,102.0,98.0,13.3,1505.3,323.6,-0.7,1.8,2470.05,13.32,0.035,184.9
2019-09-14T03:37:13,42.805,6.029,0.014,-0.028,-0.001,101.0,102.0,98.0,13.4,1505.3,325.8,-0.7,1.8,2470.057,13.32,0.031,153.4
2019-09-14T03:40:14,42.805,6.029,0.011,-0.022,-0.009,101.0,102.0,99.0,13.4,1505.3,326.0,-0.7,1.8,2470.069,13.32,0.024,153.4
2019-09-14T03:43:15,42.805,6.029,-0.008,-0.033,-0.029,101.0,101.0,99.0,13.3,1505.3,326.3,-0.7,1.8,2470.083,13.32,0.033,193.6
2019-09-14T03:46:16,42.805,6.029,-0.026,-0.027,-0.012,101.0,102.0,97.0,13.4,1505.3,327.7,-0.7,1.8,2470.082,13.32,0.037,223.9
2019-09-14T03:49:17,42.805,6.029,0.015,-0.024,-0.014,99.0,103.0,99.0,13.4,1505.3,325.0,-0.7,1.9,2470.053,13.32,0.028,148.0
2019-09-14T03:52:18,42.805,6.029,-0.015,-0.038,-0.044,101.0,103.0,96.0,13.3,1505.3,322.7,-0.7,1.8,2470.065,13.32,0.04,201.5
2019-09-14T03:55:19,42.805,6.029,-0.012,-0.028,-0.019,101.0,103.0,99.0,13.3,1505.3,326.0,-0.7,1.9,2470.062,13.32,0.03,203.2
2019-09-14T03:58:20,42.805,6.029,-0.019,-0.042,-0.027,100.0,103.0,99.0,13.4,1505.3,324.5,-0.7,1.9,2470.085,13.32,0.046,204.3
2019-09-14T04:01:21,42.805,6.029,0.004,-0.012,-0.02,101.0,102.0,98.0,13.4,1505.3,325.9,-0.7,1.9,2470.045,13.32,0.012,161.6
2019-09-14T04:04:22,42.805,6.029,-0.014,-0.019,-0.055,100.0,103.0,98.0,13.4,1505.3,323.1,-0.7,1.9,2470.123,13.32,0.023,216.4
2019-09-14T04:07:23,42.805,6.029,-0.006,-0.031,0.004,102.0,102.0,99.0,13.4,1505.3,325.0,-0.7,1.8,2470.077,13.32,0.031,191.0
2019-09-14T04:10:24,42.805,6.029,-0.002,-0.025,0.005,100.0,103.0,98.0,13.4,1505.3,326.6,-0.7,1.8,2470.049,13.32,0.025,184.6
2019-09-14T04:13:25,42.805,6.029,-0.002,-0.037,-0.054,101.0,103.0,98.0,13.4,1505.3,328.3,-0.7,1.8,2470.082,13.32,0.037,183.1
2019-09-14T04:16:26,42.805,6.029,0.004,-0.037,-0.035,102.0,101.0,98.0,13.3,1505.3,326.4,-0.7,1.9,2470.11,13.32,0.037,173.8
2019-09-14T04:19:27,42.805,6.029,-0.01,-0.044,-0.038,101.0,102.0,98.0,13.3,1505.3,326.1,-0.7,1.9,2470.081,13.32,0.045,192.8
2019-09-14T04:22:28,42.805,6.029,0.007,-0.044,-0.006,101.0,102.0,98.0,13.4,1505.3,325.9,-0.7,1.8,2470.066,13.32,0.044,171.0
2019-09-14T04:25:29,42.805,6.029,-0.007,-0.018,-0.031,100.0,102.0,98.0,13.3,1505.3,328.3,-0.7,1.8,2470.073,13.32,0.019,201.2
2019-09-14T04:28:30,42.805,6.029,-0.003,-0.041,-0.026,100.0,102.0,97.0,13.4,1505.3,327.1,-0.7,1.9,2470.123,13.32,0.041,184.2
2019-09-14T04:31:31,42.805,6.029,-0.009,-0.042,-0.028,100.0,101.0,97.0,13.4,1505.3,327.2,-0.7,1.8,2470.084,13.32,0.042,192.1
2019-09-14T04:34:32,42.805,6.029,-0.039,-0.036,-0.051,101.0,102.0,98.0,13.3,1505.3,325.1,-0.7,1.8,2470.088,13.32,0.053,227.3
2019-09-14T04:37:33,42.805,6.029,0.002,-0.05,-0.051,101.0,101.0,100.0,13.3,1505.3,323.2,-0.7,1.8,2470.091,13.32,0.05,177.7
2019-09-14T04:40:34,42.805,6.029,0.017,-0.033,0.024,100.0,101.0,99.0,13.4,1505.3,324.5,-0.7,1.8,2470.06,13.32,0.037,152.7
2019-09-14T04:43:35,42.805,6.029,0.001,-0.038,-0.009,100.0,102.0,99.0,13.4,1505.3,326.0,-0.7,1.8,2470.154,13.32,0.038,178.5
2019-09-14T04:46:36,42.805,6.029,0.003,-0.026,-0.023,100.0,102.0,98.0,13.4,1505.3,326.9,-0.7,1.9,2470.129,13.32,0.026,173.4
2019-09-14T04:49:37,42.805,6.029,-0.006,-0.038,-0.037,99.0,101.0,99.0,13.4,1505.3,326.4,-0.7,1.8,2470.106,13.32,0.038,189.0
2019-09-14T04:52:38,42.805,6.029,-0.026,-0.028,0.0,100.0,102.0,98.0,13.4,1505.3,326.4,-0.7,1.8,2470.122,13.32,0.038,222.9
2019-09-14T04:55:39,42.805,6.029,-0.009,-0.042,-0.002,101.0,103.0,98.0,13.4,1505.3,324.7,-0.7,1.9,2470.122,13.32,0.042,192.1
2019-09-14T04:58:40,42.805,6.029,-0.028,-0.041,-0.03,100.0,102.0,99.0,13.4,1505.3,324.5,-0.7,1.8,2470.141,13.32,0.049,214.3
2019-09-14T05:01:41,42.805,6.029,-0.003,-0.028,-0.024,101.0,101.0,99.0,13.3,1505.3,324.3,-0.7,1.8,2470.117,13.32,0.028,186.1
2019-09-14T05:04:42,42.805,6.029,0.003,-0.025,-0.016,101.0,102.0,99.0,13.4,1505.3,326.7,-0.8,1.8,2470.09,13.32,0.025,173.2
2019-09-14T05:07:43,42.805,6.029,-0.009,-0.014,-0.016,100.0,101.0,97.0,13.4,1505.3,327.2,-0.7,1.8,2470.148,13.32,0.016,212.7
2019-09-14T05:10:44,42.805,6.029,0.006,-0.018,0.003,101.0,101.0,97.0,13.4,1505.3,326.0,-0.7,1.8,2470.149,13.32,0.018,161.6
2019-09-14T05:13:45,42.805,6.029,0.036,-0.008,-0.024,102.0,101.0,99.0,13.4,1505.3,323.6,-0.7,1.9,2470.142,13.32,0.036,102.5
2019-09-14T05:16:46,42.805,6.029,0.017,-0.042,-0.009,101.0,102.0,100.0,13.4,1505.3,324.2,-0.7,1.8,2470.082,13.32,0.045,158.0
2019-09-14T05:19:47,42.805,6.029,0.033,-0.016,-0.004,102.0,101.0,98.0,13.4,1505.3,324.8,-0.7,1.8,2470.151,13.32,0.036,115.9
2019-09-14T05:22:48,42.805,6.029,0.005,-0.022,-0.024,101.0,104.0,98.0,13.4,1505.3,324.9,-0.7,1.8,2470.139,13.32,0.022,167.2
2019-09-14T05:25:49,42.805,6.029,0.019,-0.032,-0.002,100.0,101.0,98.0,13.4,1505.3,326.8,-0.7,1.8,2470.125,13.32,0.037,149.3
2019-09-14T05:28:50,42.805,6.029,-0.002,-0.041,0.004,101.0,102.0,98.0,13.4,1505.3,326.1,-0.7,1.8,2470.14,13.32,0.041,182.8
2019-09-14T05:31:51,42.805,6.029,0.002,-0.028,-0.015,102.0,101.0,98.0,13.3,1505.3,326.5,-0.7,1.8,2470.112,13.32,0.028,175.9
2019-09-14T05:34:52,42.805,6.029,-0.001,-0.033,-0.025,100.0,102.0,98.0,13.4,1505.3,326.6,-0.7,1.8,2470.133,13.32,0.033,181.7
2019-09-14T05:37:53,42.805,6.029,0.032,-0.04,0.014,101.0,101.0,99.0,13.4,1505.3,326.6,-0.7,1.9,2470.152,13.32,0.051,141.3
2019-09-14T05:40:54,42.805,6.029,0.001,-0.035,-0.019,100.0,102.0,98.0,13.3,1505.3,323.2,-0.7,1.8,2470.12,13.32,0.035,178.4
2019-09-14T05:43:55,42.805,6.029,0.002,-0.029,0.011,101.0,101.0,98.0,13.4,1505.3,328.3,-0.7,1.8,2470.151,13.32,0.029,176.1
2019-09-14T05:46:56,42.805,6.029,-0.02,-0.037,0.001,100.0,101.0,99.0,13.3,1505.3,325.7,-0.7,1.9,2470.128,13.32,0.042,208.4
2019-09-14T05:49:57,42.805,6.029,0.022,-0.045,-0.015,102.0,102.0,98.0,13.4,1505.3,325.8,-0.7,1.9,2470.128,13.32,0.05,153.9
2019-09-14T05:52:58,42.805,6.029,0.008,-0.038,-0.008,101.0,103.0,99.0,13.4,1505.3,325.8,-0.7,1.8,2470.13,13.32,0.038,168.1
2019-09-14T05:55:59,42.805,6.029,0.006,-0.03,0.01,100.0,103.0,98.0,13.4,1505.3,323.5,-0.7,1.8,2470.167,13.32,0.03,168.7
2019-09-14T05:59:00,42.805,6.029,0.005,-0.03,0.002,100.0,102.0,98.0,13.4,1505.3,325.0,-0.7,1.9,2470.135,13.32,0.03,170.5
2019-09-14T06:02:01,42.805,6.029,0.017,-0.02,0.01,101.0,103.0,99.0,13.4,1505.3,324.3,-0.7,1.8,2470.181,13.32,0.026,139.6
2019-09-14T06:05:02,42.805,6.029,0.002,-0.028,0.013,100.0,104.0,98.0,13.4,1505.3,328.3,-0.7,1.8,2470.171,13.32,0.028,175.9
2019-09-14T06:08:03,42.805,6.029,0.019,-0.039,0.013,100.0,103.0,100.0,13.4,1505.3,327.0,-0.7,1.8,2470.166,13.32,0.043,154.0
2019-09-14T06:11:04,42.805,6.029,-0.014,-0.038,-0.042,101.0,102.0,99.0,13.4,1505.3,325.7,-0.7,1.8,2470.162,13.32,0.04,200.2
2019-09-14T06:14:05,42.805,6.029,-0.03,-0.033,-0.019,100.0,103.0,98.0,13.3,1505.3,324.7,-0.7,1.8,2470.172,13.32,0.044,222.3
2019-09-14T06:17:06,42.805,6.029,-0.004,-0.015,-0.01,103.0,103.0,99.0,13.4,1505.3,326.6,-0.7,1.8,2470.174,13.32,0.015,194.9
2019-09-14T06:20:07,42.805,6.029,-0.02,-0.025,-0.014,101.0,102.0,99.0,13.4,1505.3,326.0,-0.7,1.8,2470.182,13.32,0.032,218.7
2019-09-14T06:23:08,42.805,6.029,-0.005,-0.021,-0.026,101.0,102.0,98.0,13.4,1505.3,323.0,-0.7,1.8,2470.199,13.32,0.021,193.4
2019-09-14T06:26:09,42.805,6.029,-0.006,-0.045,-0.049,100.0,101.0,100.0,13.4,1505.3,327.3,-0.7,1.8,2470.13,13.32,0.045,187.6
2019-09-14T06:29:10,42.805,6.029,-0.024,-0.027,-0.039,100.0,103.0,99.0,13.3,1505.3,327.7,-0.7,1.8,2470.183,13.32,0.036,221.6
2019-09-14T06:32:11,42.805,6.029,0.021,-0.032,-0.017,100.0,103.0,98.0,13.4,1505.3,328.5,-0.7,1.9,2470.208,13.32,0.038,146.7
2019-09-14T06:35:12,42.805,6.029,-0.003,-0.036,-0.011,101.0,102.0,98.0,13.4,1505.3,328.3,-0.7,1.8,2470.189,13.32,0.036,184.8
2019-09-14T06:38:13,42.805,6.029,-0.019,-0.029,-0.022,100.0,102.0,98.0,13.4,1505.3,326.1,-0.7,1.8,2470.237,13.32,0.034,213.2
2019-09-14T06:41:14,42.805,6.029,0.009,-0.032,0.005,102.0,103.0,97.0,13.3,1505.3,325.9,-0.7,1.8,2470.2,13.32,0.033,164.3
2019-09-14T06:44:15,42.805,6.029,0.018,-0.037,0.013,102.0,101.0,98.0,13.4,1505.3,325.4,-0.7,1.8,2470.173,13.32,0.041,154.1
2019-09-14T06:47:16,42.805,6.029,-0.041,-0.053,-0.065,101.0,101.0,99.0,13.4,1505.3,325.4,-0.7,1.8,2470.209,13.32,0.067,217.7
2019-09-14T06:50:17,42.805,6.029,-0.011,-0.022,-0.013,101.0,101.0,97.0,13.4,1505.3,326.3,-0.7,1.8,2470.222,13.32,0.024,206.6
2019-09-14T06:53:18,42.805,6.029,-0.014,-0.025,-0.025,100.0,102.0,98.0,13.4,1505.3,325.1,-0.7,1.8,2470.196,13.32,0.028,209.3
2019-09-14T06:56:19,42.805,6.029,-0.044,-0.036,-0.031,101.0,103.0,98.0,13.4,1505.3,325.1,-0.7,1.8,2470.166,13.32,0.056,230.7
2019-09-14T06:59:20,42.805,6.029,-0.003,-0.022,-0.01,101.0,102.0,98.0,13.4,1505.3,325.8,-0.7,1.8,2470.196,13.32,0.022,187.8
2019-09-14T07:02:21,42.805,6.029,-0.032,-0.065,-0.065,100.0,104.0,99.0,13.4,1505.3,326.1,-0.7,1.9,2470.156,13.32,0.072,206.2
2019-09-14T07:05:22,42.805,6.029,-0.036,-0.034,0.023,101.0,102.0,100.0,13.3,1505.3,328.3,-0.7,1.8,2470.198,13.32,0.049,226.6
2019-09-14T07:08:23,42.805,6.029,0.012,-0.04,-0.014,101.0,103.0,98.0,13.4,1505.3,326.5,-0.7,1.8,2470.167,13.32,0.041,163.3
2019-09-14T07:11:24,42.805,6.029,0.015,-0.04,-0.015,100.0,102.0,99.0,13.4,1505.3,327.8,-0.7,1.8,2470.217,13.32,0.042,159.4
2019-09-14T07:14:25,42.805,6.029,-0.045,-0.039,-0.043,101.0,102.0,99.0,13.4,1505.3,326.5,-0.7,1.9,2470.198,13.32,0.059,229.1
2019-09-14T07:17:26,42.805,6.029,-0.007,-0.036,-0.013,100.0,103.0,99.0,13.4,1505.3,324.9,-0.7,1.8,2470.232,13.32,0.036,191.0
2019-09-14T07:20:27,42.805,6.029,-0.018,-0.006,0.011,100.0,103.0,99.0,13.4,1505.3,327.9,-0.7,1.8,2470.229,13.33,0.018,251.6
2019-09-14T07:23:28,42.805,6.029,-0.011,-0.02,-0.025,101.0,102.0,98.0,13.4,1505.3,328.2,-0.7,1.8,2470.186,13.33,0.022,208.8
2019-09-14T07:26:29,42.805,6.029,0.028,-0.021,0.06,100.0,103.0,98.0,13.4,1505.3,328.2,-0.7,1.8,2470.23,13.33,0.035,126.9
2019-09-14T07:29:30,42.805,6.029,0.011,-0.037,-0.024,101.0,103.0,99.0,13.4,1505.3,324.8,-0.7,1.8,2470.176,13.33,0.038,163.4
2019-09-14T07:32:31,42.805,6.029,-0.015,-0.035,0.014,99.0,103.0,99.0,13.3,1505.3,323.4,-0.8,1.8,2470.193,13.33,0.038,203.2
2019-09-14T07:35:32,42.805,6.029,0.02,-0.022,0.004,102.0,103.0,98.0,13.4,1505.3,323.4,-0.7,1.8,2470.22,13.32,0.029,137.7
2019-09-14T07:38:33,42.805,6.029,0.004,-0.03,-0.011,102.0,104.0,97.0,13.3,1505.3,323.3,-0.7,1.9,2470.204,13.33,0.03,172.4
2019-09-14T07:41:34,42.805,6.029,-0.013,-0.026,0.009,101.0,103.0,99.0,13.3,1505.3,323.6,-0.7,1.8,2470.176,13.32,0.029,206.6
2019-09-14T07:44:35,42.805,6.029,-0.027,-0.021,-0.024,100.0,103.0,98.0,13.4,1505.3,324.7,-0.7,1.8,2470.133,13.32,0.034,232.1
2019-09-14T07:47:36,42.805,6.029,-0.024,-0.028,-0.024,100.0,103.0,98.0,13.4,1505.3,323.0,-0.7,1.8,2470.211,13.32,0.036,220.6
2019-09-14T07:50:37,42.805,6.029,-0.01,-0.018,-0.013,100.0,102.0,98.0,13.4,1505.3,325.8,-0.7,1.8,2470.152,13.33,0.02,209.1
2019-09-14T07:53:38,42.805,6.029,-0.009,-0.026,0.006,100.0,102.0,99.0,13.3,1505.3,324.1,-0.7,1.8,2470.177,13.33,0.027,199.1
2019-09-14T07:56:39,42.805,6.029,-0.007,-0.018,-0.005,101.0,103.0,98.0,13.4,1505.3,327.2,-0.7,1.9,2470.159,13.33,0.019,201.2
2019-09-14T07:59:40,42.805,6.029,0.011,-0.009,0.004,100.0,104.0,99.0,13.3,1505.3,327.7,-0.7,1.9,2470.186,13.33,0.014,129.3
2019-09-14T08:02:41,42.805,6.029,0.024,-0.014,0.041,101.0,104.0,98.0,13.4,1505.3,328.0,-0.7,1.8,2470.168,13.33,0.027,120.3
2019-09-14T08:05:42,42.805,6.029,0.003,-0.022,0.001,100.0,102.0,99.0,13.4,1505.3,327.3,-0.7,1.8,2470.182,13.33,0.022,172.2
2019-09-14T08:08:43,42.805,6.029,-0.008,-0.013,0.014,100.0,103.0,98.0,13.4,1505.3,325.4,-0.7,1.8,2470.195,13.33,0.015,211.6
2019-09-14T08:11:44,42.805,6.029,-0.052,-0.042,-0.025,101.0,103.0,98.0,13.4,1505.3,325.2,-0.7,1.8,2470.154,13.33,0.066,231.1
2019-09-14T08:14:45,42.805,6.029,0.014,-0.007,0.048,100.0,102.0,97.0,13.3,1505.3,326.2,-0.7,1.8,2470.194,13.33,0.015,116.6
2019-09-14T08:17:46,42.805,6.029,0.001,-0.015,-0.006,101.0,102.0,97.0,13.3,1505.3,324.4,-0.7,1.8,2470.155,13.33,0.015,176.2
2019-09-14T08:20:47,42.805,6.029,0.0,-0.01,-0.017,100.0,102.0,100.0,13.3,1505.3,327.0,-0.7,1.8,2470.167,13.33,0.01,180.0
2019-09-14T08:23:48,42.805,6.029,0.0,-0.01,0.006,100.0,103.0,100.0,13.4,1505.3,327.3,-0.7,1.8,2470.193,13.33,0.01,180.0
2019-09-14T08:26:49,42.805,6.029,0.031,-0.009,0.033,100.0,104.0,97.0,13.4,1505.3,325.7,-0.7,1.8,2470.187,13.33,0.032,106.2
2019-09-14T08:29:50,42.805,6.029,0.014,-0.01,0.006,101.0,102.0,97.0,13.4,1505.3,323.0,-0.7,1.8,2470.149,13.33,0.017,125.5
2019-09-14T08:32:51,42.805,6.029,0.03,-0.009,0.026,100.0,103.0,98.0,13.4,1505.3,327.1,-0.7,1.8,2470.134,13.33,0.031,106.7
2019-09-14T08:35:52,42.805,6.029,0.027,-0.022,0.046,101.0,103.0,97.0,13.4,1505.3,323.8,-0.7,1.8,2470.188,13.33,0.034,129.2
2019-09-14T08:38:53,42.805,6.029,-0.017,-0.016,0.015,99.0,102.0,98.0,13.3,1505.3,327.2,-0.7,1.8,2470.162,13.33,0.023,226.7
2019-09-14T08:41:54,42.805,6.029,0.011,-0.016,0.019,100.0,101.0,98.0,13.4,1505.3,325.9,-0.7,1.8,2470.152,13.33,0.019,145.5
2019-09-14T08:44:55,42.805,6.029,0.001,-0.016,0.016,100.0,102.0,98.0,13.3,1505.3,326.5,-0.7,1.9,2470.169,13.33,0.016,176.4
2019-09-14T08:47:56,42.805,6.029,0.005,-0.014,0.034,100.0,102.0,99.0,13.3,1505.3,325.6,-0.8,1.8,2470.129,13.33,0.014,160.4
2019-09-14T08:50:57,42.805,6.029,-0.025,-0.028,-0.024,101.0,102.0,98.0,13.4,1505.3,325.5,-0.7,1.9,2470.152,13.33,0.037,221.8
2019-09-14T08:53:58,42.805,6.029,-0.003,-0.026,-0.036,100.0,102.0,98.0,13.3,1505.3,326.3,-0.7,1.8,2470.154,13.33,0.026,186.6
2019-09-14T08:56:59,42.805,6.029,0.011,-0.021,0.028,101.0,102.0,99.0,13.3,1505.3,324.0,-0.7,1.8,2470.146,13.33,0.023,152.4
2019-09-14T09:00:00,42.805,6.029,0.037,-0.02,0.007,101.0,104.0,98.0,13.4,1505.3,324.2,-0.7,1.8,2470.16,13.33,0.042,118.4
2019-09-14T09:03:01,42.805,6.029,0.002,-0.015,0.037,100.0,104.0,98.0,13.4,1505.3,325.7,-0.7,1.8,2470.127,13.33,0.015,172.4
2019-09-14T09:06:02,42.805,6.029,-0.016,-0.026,0.004,101.0,103.0,98.0,13.3,1505.3,327.6,-0.7,1.8,2470.144,13.33,0.03,211.6
2019-09-14T09:09:03,42.805,6.029,-0.032,-0.008,-0.032,100.0,103.0,98.0,13.4,1505.3,327.6,-0.7,1.8,2470.172,13.33,0.032,256.0
2019-09-14T09:12:04,42.805,6.029,-0.001,-0.027,0.012,101.0,102.0,98.0,13.4,1505.3,327.8,-0.7,1.9,2470.12,13.33,0.027,182.1
2019-09-14T09:15:05,42.805,6.029,0.001,-0.013,0.003,101.0,103.0,98.0,13.4,1505.3,327.5,-0.7,1.8,2470.141,13.33,0.013,175.6
2019-09-14T09:18:06,42.805,6.029,-0.036,-0.02,-0.022,100.0,105.0,98.0,13.4,1505.3,325.1,-0.7,1.8,2470.147,13.33,0.041,240.9
2019-09-14T09:21:07,42.805,6.029,0.008,-0.025,0.02,100.0,102.0,98.0,13.4,1505.3,326.6,-0.7,1.8,2470.159,13.33,0.026,162.3
2019-09-14T09:24:08,42.805,6.029,-0.022,-0.018,0.002,100.0,103.0,97.0,13.4,1505.3,328.4,-0.7,1.8,2470.088,13.33,0.028,230.7
2019-09-14T09:27:09,42.805,6.029,-0.026,-0.02,-0.029,100.0,103.0,98.0,13.4,1505.3,327.7,-0.7,1.8,2470.12,13.33,0.032,232.4
2019-09-14T09:30:10,42.805,6.029,0.016,-0.015,0.041,101.0,103.0,98.0,13.4,1505.3,327.2,-0.7,1.8,2470.109,13.33,0.021,133.1
2019-09-14T09:33:11,42.805,6.029,-0.004,-0.014,0.021,100.0,103.0,97.0,13.4,1505.3,324.1,-0.7,1.8,2470.158,13.33,0.014,195.9
2019-09-14T09:36:12,42.805,6.029,0.018,-0.012,0.037,101.0,103.0,98.0,13.4,1505.3,327.0,-0.7,1.8,2470.136,13.33,0.021,123.7
2019-09-14T09:39:13,42.805,6.029,0.04,-0.004,0.018,100.0,103.0,97.0,13.3,1505.3,323.2,-0.7,1.9,2470.139,13.33,0.04,95.7